Regional Weather Roundup
Issued by NWS

Home | Current Version | Previous Version | Text Only | Print | Product List | Glossary On
Versions: 1 2 3 4 5 6 7 8 9 10 11 12 13 14 15 16 17 18 19 20 21 22 23 24 25 26 27 28 29 30 31 32 33 34 35 36 37 38 39 40 41 42 43 44 45 46 47 48 49 50
068
ASUS44 KJAN 011810
RWRMS

MISSISSIPPI HOURLY WEATHER ROUNDUP
NATIONAL WEATHER SERVICE JACKSON MS
100 PM CDT MON SEP 01 2014

NOTE: "FAIR: INDICATES FEW OR NO CLOUDS BELOW 12,000 FEET WITH NO
SIGNIFICANT WEATHER AND/OR OBSTRUCTIONS TO VISIBILITY.

MSZ001>002-007>008-010>013-018>021-025>028-034>036-011900-
NORTHWEST MISSISSIPPI

CITY           SKY/WX    TMP DP  RH WIND       PRES   REMARKS
CLARKSDALE     FAIR      77  73  88 CALM      30.06F
CLEVELAND      FAIR      88  76  68 W6        30.04F HX  99
GREENWOOD      MOSUNNY   89  73  59 S12       30.05F HX  97
6HR MIN TEMP:  73; 6HR MAX TEMP:  90;

GREENVILLE     MOSUNNY   90  74  59 VRB7      30.04S HX  99
6HR MIN TEMP:  74; 6HR MAX TEMP:  90;

GRENADA        FAIR      90  70  51 W8        30.07S HX  95
OLIVE BRANCH   MOSUNNY   88  75  66 SW15G22   30.06F HX  97
OXFORD         FAIR      86  72  62 W6        30.09F HX  92
TUNICA         CLEAR     86  73  66 S7        30.06F HX  93
$$

MSZ003>006-009-014>017-022>024-029>033-037>039-011900-
NORTHEAST MISSISSIPPI

CITY           SKY/WX    TMP DP  RH WIND       PRES   REMARKS
BELMONT        FAIR      87  71  58 S7        30.09F HX  92
COLUMBUS AFB   MOSUNNY   90  69  50 SW9       30.08F HX  94
6HR MIN TEMP:  70; 6HR MAX TEMP:  90;

CORINTH        FAIR      88  72  58 SW8       30.07F HX  94
GOLDN TRIANGLE MOSUNNY   90  72  55 SW5       30.09F HX  96
STARKVILLE     FAIR      90  70  51 S9        30.08F HX  95
TUPELO         MOSUNNY   91  69  48 SW8       30.07F HX  96
6HR MIN TEMP:  72; 6HR MAX TEMP:  91;

$$

MSZ040-058-011900-
CENTRAL MISSISSIPPI

CITY           SKY/WX    TMP DP  RH WIND       PRES   REMARKS
JACKSON INTL   PTSUNNY   91  72  53 S7G17     30.06F HX  98
6HR MIN TEMP:  73; 6HR MAX TEMP:  92;

JACKSON HAWKNS MOSUNNY   91  71  51 S13       30.07F HX  97
6HR MIN TEMP:  75; 6HR MAX TEMP:  91;

MERIDIAN KEY   MOSUNNY   91  69  48 S12       30.08F HX  96
6HR MIN TEMP:  72; 6HR MAX TEMP:  92;

MERIDIAN NAS   MOSUNNY   90  69  50 MISG      30.08F HX  94
6HR MIN TEMP:  73; 6HR MAX TEMP:  92;

RAYMOND        MOCLDY    91  86  84 S6        30.06S HX 122
VICKSBURG      MOSUNNY   90  74  59 S10       30.04F HX  99
6HR MIN TEMP:  75; 6HR MAX TEMP:  90;

$$

MSZ059>079-011900-
SOUTH MISSISSIPPI

CITY           SKY/WX    TMP DP  RH WIND       PRES   REMARKS
BROOKHAVEN     FAIR      90  75  62 SE7       30.09F HX 100
HATTIESBURG    MOSUNNY   93  71  48 SE8G21    30.06F HX 100
6HR MIN TEMP:  72; 6HR MAX TEMP:  93;

MCCOMB         CLOUDY    87  72  60 S8        30.06F HX  93
6HR MIN TEMP:  74; 6HR MAX TEMP:  90;

NATCHEZ        PTSUNNY   88  75  66 S6        30.04F HX  97
6HR MIN TEMP:  75; 6HR MAX TEMP:  90;

PINE BELT      PTSUNNY   90  72  55 S6        30.09F HX  96
6HR MIN TEMP:  72; 6HR MAX TEMP:  90;

$$

MSZ080>082-011900-
COASTAL MISSISSIPPI

CITY           SKY/WX    TMP DP  RH WIND       PRES   REMARKS
BAY ST LOUIS   MOSUNNY  N/A N/A N/A S13G18    30.06
BILOXI         SUNNY     91  75  60 S9G18     30.07F HX 101
6HR MIN TEMP:  80; 6HR MAX TEMP:  91;

PASCAGOULA     MOSUNNY   90  73  57 S13       30.07F HX  98
6HR MIN TEMP:  71; 6HR MAX TEMP:  91;

GULFPORT       MOSUNNY   89  76  65 S16       30.06F HX 100
6HR MIN TEMP:  77; 6HR MAX TEMP:  90;

$$



USA.gov is the U.S. government's official web portal to all federal, state and local government web resources and services.